[[{"header":{"parameterUnit":"m.s-1","parameterCategory":1,"la1":30.2991,"la2":30.254,"lo1":-89.0895,"lo2":-89.0444,"dy":0.0017,"dx":0.0017,"nx":28,"ny":28,"refTime":"2025-03-07T03:00:00:Z","depth":0,"parameterNumber":2,"parameterNumberName":"U-component_of_WINDS"},"data":[0,0,0,0,0,0,0,0,0,0,0,0,0,0,0,0,0,0,0,0,0,0,0,0,0,0,0,0,0,0,0,0,0,0,0,0,0,0,0,0,0,0,0,0,0,0,0,0,0,0,0,0,0,0,0,0,0,0,-0.6034,-0.6034,0,-0.6027,-0.6027,-0.6027,-0.6027,-0.6027,-0.6027,-0.6027,-0.6019,-0.6019,-0.6019,0,0,0,0,0,0,0,0,0,0,0,0,0,-0.6046,-0.6046,-0.6034,-0.6034,-0.6034,-0.6028,-0.6027,-0.6027,-0.6027,-0.6027,-0.6027,-0.6027,-0.6019,-0.6019,-0.6019,0,0,0,0,0,0,0,0,0,0,0,0,0,-0.604,-0.6045,-0.6034,-0.6033,-0.6033,-0.6028,-0.6027,-0.6027,-0.6027,-0.6027,-0.6027,-0.6027,-0.6019,-0.6019,-0.6019,-0.6014,0,0,-0.6017,-0.6017,0,0,0,0,0,0,0,0,-0.604,-0.604,-0.6033,-0.6033,-0.6033,-0.6028,-0.6029,-0.6023,-0.6027,-0.6029,-0.6027,-0.6027,-0.6022,-0.6021,-0.602,-0.6014,-0.6013,-0.6017,-0.6017,-0.6017,-0.6017,0,0,0,0,0,0,0,-0.6041,-0.604,-0.6032,-0.6033,-0.6033,-0.6032,-0.6032,-0.6028,-0.6025,-0.6029,-0.6029,-0.6028,-0.6022,-0.602,-0.602,-0.6013,-0.6017,-0.6017,-0.6017,-0.6017,-0.6002,-0.6002,0,0,0,0,0,0,-0.6041,-0.604,-0.6032,-0.6031,-0.6037,-0.6032,-0.6031,-0.6029,-0.6025,-0.6024,-0.6028,-0.6028,-0.6021,-0.602,-0.6019,-0.6013,-0.6017,-0.6016,-0.6016,-0.6002,-0.6002,-0.6002,0,0,0,0,0,0,-0.6042,-0.6041,-0.6032,-0.6036,-0.6035,-0.6032,-0.603,-0.6029,-0.6028,-0.6024,-0.6024,-0.6027,-0.6021,-0.602,-0.6015,-0.6013,-0.6016,-0.6016,-0.6002,-0.6002,-0.6002,-0.6001,0,0,0,0,0,0,-0.6042,-0.6041,-0.6039,-0.6036,-0.6034,-0.6028,-0.603,-0.6029,-0.6027,-0.6027,-0.6023,-0.6022,-0.6021,-0.6016,-0.6015,-0.6012,-0.6016,-0.6002,-0.6002,-0.6002,-0.6001,-0.6001,-0.6,0,0,0,0,0,-0.6042,-0.6039,-0.6039,-0.6038,-0.6033,-0.6028,-0.6027,-0.6026,-0.6027,-0.6025,-0.6023,-0.6023,-0.6013,-0.6015,-0.6014,-0.6012,-0.6003,-0.6002,-0.6002,-0.6001,-0.6001,-0.6,0,0,0,0,0,0,-0.6043,-0.6039,-0.6039,-0.6034,-0.6032,-0.6028,-0.6026,-0.6025,-0.6022,-0.6022,-0.602,-0.6019,-0.6015,-0.6013,-0.6015,-0.6007,-0.6008,-0.6007,-0.6008,-0.6007,-0.6007,-0.6007,-0.6015,0,0,0,0,0,-0.6042,-0.6039,-0.6036,-0.6033,-0.6031,-0.6029,-0.6027,-0.6026,-0.6023,-0.6022,-0.6019,-0.6016,-0.6012,-0.601,-0.6006,-0.6001,-0.6,-0.5999,-0.5998,-0.5998,-0.5997,-0.5994,-0.5993,-0.6001,-0.6001,-0.6001,0,0,-0.6041,-0.6039,-0.6037,-0.6032,-0.603,-0.6027,-0.6028,-0.6024,-0.6022,-0.6021,-0.6016,-0.6014,-0.601,-0.6005,-0.6003,-0.6003,-0.5995,-0.5997,-0.5997,-0.5997,-0.5993,-0.5993,-0.5992,-0.6,-0.6001,-0.6001,0,0,-0.6038,-0.6036,-0.6032,-0.603,-0.6026,-0.6025,-0.6024,-0.602,-0.6019,-0.6014,-0.6014,-0.601,-0.6004,-0.6001,-0.5999,-0.5994,-0.5993,-0.5993,-0.5991,-0.5987,-0.5986,-0.5986,-0.5983,-0.5983,-0.5992,-0.5992,-0.5992,0,-0.6037,-0.6032,-0.6031,-0.6027,-0.6025,-0.6024,-0.602,-0.6018,-0.6014,-0.6012,-0.6013,-0.6005,-0.6002,-0.5996,-0.5995,-0.5993,-0.5991,-0.5993,-0.5987,-0.5986,-0.5986,-0.5983,-0.5982,-0.5992,-0.5992,-0.5992,-0.5992,0,-0.6031,-0.6027,-0.6025,-0.6021,-0.6018,-0.6015,-0.6012,-0.601,-0.6009,-0.6007,-0.6002,-0.5999,-0.5994,-0.5993,-0.5992,-0.5986,-0.5987,-0.5987,-0.5989,-0.5985,-0.5983,-0.5982,-0.5992,-0.5992,-0.5992,-0.5992,0,0,-0.6027,-0.6022,-0.6021,-0.6019,-0.6015,-0.6012,-0.6008,-0.6004,-0.6001,-0.5998,-0.5995,-0.5989,-0.5989,-0.5987,-0.5986,-0.5983,-0.5978,-0.5983,-0.5983,-0.5982,-0.5971,-0.597,-0.5969,-0.5978,-0.5977,-0.5977,-0.5971,0,-0.6023,-0.6016,-0.6014,-0.6008,-0.6005,-0.6004,-0.6001,-0.5997,-0.5995,-0.5992,-0.599,-0.5986,-0.5986,-0.5985,-0.5982,-0.5979,-0.5976,-0.598,-0.5974,-0.5973,-0.5974,-0.5968,-0.5968,-0.5962,-0.597,-0.597,-0.597,0,-0.6017,-0.6013,-0.6007,-0.6003,-0.6001,-0.5998,-0.5994,-0.5991,-0.5987,-0.5986,-0.5983,-0.5982,-0.5977,-0.5979,-0.5972,-0.5975,-0.5972,-0.597,-0.597,-0.5969,-0.5971,-0.5966,-0.596,-0.5959,-0.5968,-0.5969,-0.5969,0,-0.6014,-0.6008,-0.6003,-0.6002,-0.5997,-0.5995,-0.5992,-0.5989,-0.5986,-0.5982,-0.598,-0.5976,-0.5973,-0.597,-0.5967,-0.5969,-0.596,-0.5962,-0.5959,-0.5959,-0.5957,-0.5957,-0.5949,-0.5956,-0.5956,-0.5956,-0.5956,0,-0.6009,-0.6005,-0.6002,-0.5999,-0.5994,-0.5993,-0.5988,-0.5986,-0.5982,-0.5978,-0.5977,-0.5974,-0.5971,-0.5967,-0.5965,-0.5959,-0.5958,-0.5957,-0.5956,-0.5956,-0.5956,-0.5954,-0.5955,-0.5956,-0.5956,-0.5956,-0.5956,0,-0.6006,-0.6003,-0.5998,-0.5994,-0.5993,-0.5989,-0.5986,-0.5982,-0.598,-0.5975,-0.5974,-0.5971,-0.5966,-0.5963,-0.5957,-0.5955,-0.5949,-0.5949,-0.595,-0.595,-0.5946,-0.5946,-0.5936,-0.5935,-0.5943,-0.5943,-0.5943,0,-0.6003,-0.5999,-0.5995,-0.5992,-0.599,-0.5986,-0.5983,-0.5981,-0.5978,-0.5973,-0.597,-0.5965,-0.5961,-0.5953,-0.595,-0.5945,-0.5944,-0.5941,-0.5944,-0.5944,-0.5943,-0.5944,-0.5943,-0.5941,-0.5941,-0.594,-0.594,0,-0.5997,-0.5996,-0.5992,-0.5988,-0.5984,-0.5981,-0.5977,-0.5975,-0.5972,-0.5969,-0.5964,-0.5961,-0.5954,-0.5949,-0.5943,-0.5941,-0.594,-0.594,-0.5938,-0.5939,-0.5939,-0.5938,-0.5948,-0.594,-0.594,-0.594,-0.594,-0.594,-0.5993,-0.599,-0.5986,-0.5982,-0.5979,-0.5975,-0.5972,-0.5969,-0.5965,-0.596,-0.5959,-0.5953,-0.5949,-0.5941,-0.5938,-0.5934,-0.5934,-0.5933,-0.5932,-0.5932,-0.5931,-0.594,-0.5933,-0.5933,-0.5933,-0.5933,-0.5933,0,-0.5987,-0.5985,-0.5981,-0.5975,-0.5972,-0.5972,-0.5967,-0.5964,-0.5959,-0.5955,-0.5951,-0.5945,-0.594,-0.5936,-0.593,-0.5927,-0.5927,-0.5926,-0.5926,-0.5925,-0.5931,-0.5933,-0.5926,-0.5926,-0.5926,-0.5926,-0.5926,-0.5926,-0.5984,-0.5978,-0.5977,-0.5969,-0.5967,-0.5961,-0.5959,-0.5955,-0.5952,-0.5945,-0.5941,-0.5939,-0.5934,-0.5928,-0.5923,-0.5922,-0.592,-0.5919,-0.5918,-0.5924,-0.5925,-0.5925,-0.5926,-0.5919,-0.5919,-0.5912,-0.5912,-0.5912]},{"header":{"parameterUnit":"m.s-1","parameterCategory":1,"la1":30.2991,"la2":30.254,"lo1":-89.0895,"lo2":-89.0444,"dy":0.0017,"dx":0.0017,"nx":28,"ny":28,"refTime":"2025-03-07T03:00:00:Z","depth":0,"parameterNumber":3,"parameterNumberName":"V-component_of_WINDS"},"data":[0,0,0,0,0,0,0,0,0,0,0,0,0,0,0,0,0,0,0,0,0,0,0,0,0,0,0,0,0,0,0,0,0,0,0,0,0,0,0,0,0,0,0,0,0,0,0,0,0,0,0,0,0,0,0,0,0,0,3.4129,3.413,0,3.4222,3.4223,3.4224,3.4233,3.4232,3.4231,3.423,3.4323,3.4327,3.433,0,0,0,0,0,0,0,0,0,0,0,0,0,3.3959,3.3962,3.4129,3.413,3.4131,3.4221,3.4223,3.4224,3.4233,3.4232,3.423,3.4229,3.4322,3.4326,3.433,0,0,0,0,0,0,0,0,0,0,0,0,0,3.404,3.3963,3.4129,3.4146,3.4149,3.4221,3.4223,3.4224,3.4233,3.4232,3.423,3.4229,3.4321,3.4326,3.4331,3.4391,0,0,3.4346,3.4348,0,0,0,0,0,0,0,0,3.4036,3.4047,3.4143,3.4145,3.4148,3.4214,3.4197,3.428,3.4233,3.4201,3.423,3.4228,3.4288,3.4296,3.4316,3.4395,3.4399,3.4347,3.435,3.4352,3.4353,0,0,0,0,0,0,0,3.403,3.4043,3.4165,3.4144,3.4148,3.415,3.416,3.4213,3.4251,3.4204,3.4205,3.4216,3.4289,3.4311,3.4318,3.4401,3.4347,3.4351,3.4354,3.4356,3.4537,3.4539,0,0,0,0,0,0,3.4021,3.4038,3.4162,3.4168,3.4087,3.4154,3.4165,3.4194,3.4251,3.4258,3.4217,3.4216,3.4303,3.4312,3.4322,3.4399,3.4352,3.4357,3.436,3.4536,3.4538,3.454,0,0,0,0,0,0,3.4018,3.4032,3.4159,3.4103,3.412,3.4158,3.4191,3.4197,3.4219,3.4261,3.4268,3.4232,3.4303,3.4315,3.4375,3.4402,3.4359,3.4364,3.4533,3.4536,3.4539,3.4551,0,0,0,0,0,0,3.4013,3.4031,3.4054,3.4104,3.4123,3.421,3.4193,3.42,3.4228,3.4228,3.4277,3.4284,3.4302,3.4367,3.438,3.4408,3.4368,3.4531,3.4535,3.4538,3.4549,3.4554,3.4559,0,0,0,0,0,3.4007,3.4053,3.4055,3.407,3.4153,3.4212,3.4222,3.4243,3.423,3.4254,3.4281,3.4282,3.4396,3.4373,3.4387,3.4418,3.453,3.4534,3.4538,3.4546,3.4553,3.4559,0,0,0,0,0,0,3.4004,3.406,3.4063,3.4127,3.4165,3.4213,3.4244,3.4249,3.4291,3.4288,3.4312,3.4323,3.4383,3.4406,3.4379,3.4481,3.4462,3.4469,3.4464,3.447,3.4475,3.4469,3.4372,0,0,0,0,0,3.4011,3.4055,3.4101,3.4153,3.4172,3.4204,3.4231,3.4244,3.4284,3.4299,3.4331,3.4369,3.4414,3.4443,3.4486,3.4552,3.4564,3.458,3.4585,3.4589,3.4595,3.4634,3.4643,3.4553,3.4553,3.4553,0,0,3.4026,3.4062,3.4088,3.4153,3.4184,3.4229,3.4218,3.4265,3.4299,3.4306,3.4366,3.439,3.4435,3.4499,3.4528,3.452,3.4623,3.4594,3.4597,3.4601,3.4639,3.4648,3.4655,3.4555,3.4555,3.4554,0,0,3.4077,3.4107,3.4155,3.4187,3.4234,3.4256,3.4268,3.4316,3.4333,3.4393,3.44,3.4441,3.4517,3.4549,3.4576,3.4641,3.4644,3.4654,3.4681,3.4719,3.4726,3.4733,3.4759,3.4767,3.466,3.466,3.466,0,3.4089,3.4158,3.4179,3.4228,3.4257,3.4267,3.4317,3.4346,3.4404,3.4425,3.4414,3.4512,3.4542,3.4615,3.4632,3.4652,3.4667,3.4649,3.4723,3.473,3.4736,3.4761,3.4771,3.4661,3.4661,3.4661,3.4661,0,3.4172,3.422,3.4253,3.4311,3.4344,3.4393,3.4422,3.4453,3.4463,3.4486,3.4549,3.4585,3.4638,3.4656,3.4665,3.4731,3.4725,3.4718,3.47,3.4746,3.477,3.4779,3.4662,3.4662,3.4662,3.4661,0,0,3.4224,3.4295,3.4307,3.4335,3.4389,3.4426,3.4475,3.4528,3.4555,3.4595,3.4639,3.4704,3.4699,3.4729,3.4743,3.4776,3.4829,3.4766,3.4767,3.4779,3.4906,3.4913,3.4923,3.483,3.4832,3.4834,3.4904,0,3.4283,3.4372,3.4394,3.4471,3.4517,3.4527,3.4571,3.4609,3.4632,3.4674,3.4699,3.4746,3.4735,3.4754,3.4787,3.4815,3.4855,3.481,3.4873,3.4875,3.4864,3.4935,3.4942,3.5006,3.4913,3.4914,3.4916,0,3.4363,3.4407,3.449,3.454,3.456,3.4599,3.465,3.4689,3.4733,3.4748,3.4783,3.4793,3.4847,3.4824,3.4899,3.4868,3.4895,3.4913,3.4916,3.4924,3.49,3.4948,3.5026,3.5037,3.493,3.4929,3.4928,0,3.4396,3.4476,3.4536,3.4559,3.4619,3.4647,3.4672,3.4715,3.4746,3.479,3.4811,3.486,3.4888,3.4926,3.495,3.4931,3.5024,3.5003,3.5039,3.5039,3.506,3.5059,3.5146,3.5073,3.5072,3.5072,3.5072,0,3.4461,3.4512,3.4553,3.459,3.4647,3.4671,3.4728,3.4754,3.4792,3.4835,3.4846,3.4886,3.4914,3.4959,3.4978,3.5038,3.505,3.5064,3.5069,3.5065,3.5064,3.5084,3.5082,3.5075,3.5074,3.5074,3.5073,0,3.4508,3.4538,3.4605,3.4656,3.467,3.4711,3.4755,3.4792,3.4816,3.487,3.4885,3.4922,3.4975,3.5003,3.5068,3.5081,3.515,3.5151,3.5136,3.5139,3.5175,3.5172,3.528,3.5297,3.521,3.5211,3.5211,0,3.4549,3.4589,3.4645,3.4676,3.4703,3.4751,3.4783,3.4808,3.4842,3.4896,3.4927,3.4981,3.5026,3.511,3.5143,3.5194,3.5198,3.5233,3.5206,3.5202,3.5203,3.5201,3.5206,3.5238,3.5239,3.524,3.524,0,3.4619,3.4632,3.4679,3.4731,3.477,3.4812,3.4854,3.4877,3.491,3.4947,3.5002,3.5037,3.5105,3.516,3.5214,3.5241,3.5247,3.5248,3.526,3.5257,3.5248,3.5257,3.5152,3.5246,3.5245,3.5245,3.5245,3.5244,3.4667,3.4703,3.475,3.4802,3.4836,3.4876,3.4914,3.4943,3.499,3.5049,3.506,3.512,3.5165,3.5238,3.5267,3.5314,3.5307,3.5323,3.5327,3.5332,3.5335,3.5239,3.5323,3.5323,3.5323,3.5323,3.5323,0,3.474,3.4771,3.4818,3.4877,3.4919,3.4921,3.4968,3.5003,3.5055,3.5096,3.5141,3.5206,3.5259,3.5297,3.5351,3.5382,3.5386,3.5396,3.5395,3.5402,3.5336,3.5322,3.5391,3.5391,3.5391,3.5391,3.5391,3.5391,3.4783,3.4847,3.4865,3.4947,3.4977,3.5036,3.5063,3.51,3.5133,3.5206,3.5251,3.5275,3.5316,3.5374,3.5423,3.5433,3.5454,3.5464,3.5474,3.5413,3.5406,3.5399,3.5386,3.5467,3.5467,3.5536,3.5536,3.5537]}]]